When you browse on this site, cookies collect data to enhance your experience and personalize the content and advertising you see.
Visit our Privacy Policy to learn more. By continuing to use the site, you agree to this use of cookies and data.
  • în România
  • Lista ţărilor
  • Pe 7 zile
  • Temperatura apei
  • Hartă satelitară
  • Meteo pe hartă
  • Widget-uri
  • user-avatar
    Intrare

    Meteo pe oră la Nadżaf

    Astăzi, 21 Ianuarie, Luni

    Timp Temperatura Precipitaţii Vânt Presiune Umiditate
    00:00 +8°C° 0 mm 1 m/s 758 mmHg 40%
    01:00 +7°C° 0 mm 0 m/s 758 mmHg 40%
    02:00 +7°C° 0 mm 0 m/s 758 mmHg 40%
    03:00 +7°C° 0 mm 0 m/s 758 mmHg 40%
    04:00 +8°C° 0 mm 1 m/s 758 mmHg 41%
    05:00 +8°C° 0 mm 1 m/s 758 mmHg 41%
    06:00 +9°C° 0 mm 1 m/s 758 mmHg 41%
    07:00 +9°C° 0 mm 1 m/s 758 mmHg 40%
    08:00 +10°C° 0 mm 1 m/s 758 mmHg 38%
    09:00 +10°C° 0 mm 1 m/s 758 mmHg 36%
    10:00 +11°C° 0 mm 1 m/s 757 mmHg 33%
    11:00 +12°C° 0 mm 1 m/s 757 mmHg 30%
    12:00 +13°C° 0 mm 1 m/s 757 mmHg 27%
    13:00 +14°C° 0 mm 1 m/s 756 mmHg 26%
    14:00 +14°C° 0 mm 1 m/s 756 mmHg 24%
    15:00 +15°C° 0 mm 1 m/s 755 mmHg 22%
    16:00 +14°C° 0 mm 1 m/s 755 mmHg 24%
    17:00 +14°C° 0 mm 1 m/s 755 mmHg 25%
    18:00 +13°C° 0 mm 1 m/s 755 mmHg 27%
    19:00 +12°C° 0 mm 1 m/s 755 mmHg 28%
    20:00 +12°C° 0 mm 1 m/s 755 mmHg 29%
    21:00 +11°C° 0 mm 1 m/s 755 mmHg 30%
    22:00 +11°C° 0 mm 1 m/s 755 mmHg 31%
    23:00 +11°C° 0 mm 1 m/s 755 mmHg 32%

    Mâine, 22 Ianuarie, Marţi

    Timp Temperatura Precipitaţii Vânt Presiune Umiditate
    00:00 +10°C° 0 mm 2 m/s 755 mmHg 33%
    01:00 +9°C° 0 mm 2 m/s 755 mmHg 34%
    02:00 +9°C° 0 mm 2 m/s 755 mmHg 36%
    03:00 +9°C° 0 mm 2 m/s 755 mmHg 37%
    04:00 +8°C° 0 mm 2 m/s 755 mmHg 39%
    05:00 +9°C° 0 mm 1 m/s 755 mmHg 40%
    06:00 +8°C° 0 mm 1 m/s 755 mmHg 42%
    07:00 +9°C° 0 mm 1 m/s 755 mmHg 39%
    08:00 +10°C° 0 mm 1 m/s 755 mmHg 35%
    09:00 +10°C° 0 mm 0 m/s 756 mmHg 32%
    10:00 +13°C° 0 mm 1 m/s 755 mmHg 30%
    11:00 +14°C° 0 mm 1 m/s 755 mmHg 28%
    12:00 +15°C° 0 mm 1 m/s 755 mmHg 26%
    13:00 +15°C° 0 mm 1 m/s 755 mmHg 25%
    14:00 +16°C° 0 mm 1 m/s 754 mmHg 25%
    15:00 +16°C° 0 mm 2 m/s 754 mmHg 24%
    16:00 +16°C° 0 mm 2 m/s 754 mmHg 26%
    17:00 +15°C° 0 mm 2 m/s 754 mmHg 28%
    18:00 +14°C° 0 mm 2 m/s 754 mmHg 31%
    19:00 +14°C° 0 mm 2 m/s 754 mmHg 32%
    20:00 +13°C° 0 mm 2 m/s 754 mmHg 34%
    21:00 +13°C° 0 mm 2 m/s 754 mmHg 36%
    22:00 +12°C° 0 mm 1 m/s 754 mmHg 38%
    23:00 +12°C° 0 mm 1 m/s 754 mmHg 39%

    Poimâine, 23 Ianuarie, Miercuri

    Timp Temperatura Precipitaţii Vânt Presiune Umiditate
    00:00 +11°C° 0 mm 1 m/s 755 mmHg 41%
    01:00 +11°C° 0 mm 1 m/s 754 mmHg 42%
    02:00 +10°C° 0 mm 1 m/s 754 mmHg 43%
    03:00 +10°C° 0 mm 1 m/s 754 mmHg 44%
    04:00 +10°C° 0 mm 1 m/s 754 mmHg 44%
    05:00 +9°C° 0 mm 1 m/s 754 mmHg 44%
    06:00 +9°C° 0 mm 1 m/s 754 mmHg 44%
    07:00 +10°C° 0 mm 1 m/s 755 mmHg 40%
    08:00 +12°C° 0 mm 1 m/s 755 mmHg 36%
    09:00 +12°C° 0 mm 0 m/s 756 mmHg 32%
    10:00 +13°C° 0 mm 0 m/s 756 mmHg 30%
    11:00 +14°C° 0 mm 0 m/s 756 mmHg 28%
    12:00 +15°C° 0 mm 0 m/s 756 mmHg 25%
    13:00 +18°C° 0 mm 1 m/s 755 mmHg 24%
    14:00 +18°C° 0 mm 1 m/s 755 mmHg 23%
    15:00 +19°C° 0 mm 1 m/s 754 mmHg 22%
    16:00 +18°C° 0 mm 1 m/s 754 mmHg 24%
    17:00 +16°C° 0 mm 1 m/s 754 mmHg 26%
    18:00 +15°C° 0 mm 1 m/s 754 mmHg 27%
    19:00 +15°C° 0 mm 1 m/s 755 mmHg 28%
    20:00 +14°C° 0 mm 1 m/s 755 mmHg 29%
    21:00 +13°C° 0 mm 1 m/s 756 mmHg 30%
    22:00 +13°C° 0 mm 1 m/s 756 mmHg 31%
    23:00 +12°C° 0 mm 1 m/s 756 mmHg 31%

    24 Ianuarie, Joi

    Timp Temperatura Precipitaţii Vânt Presiune Umiditate
    00:00 +12°C° 0 mm 1 m/s 756 mmHg 32%
    01:00 +11°C° 0 mm 1 m/s 755 mmHg 33%
    02:00 +10°C° 0 mm 0 m/s 755 mmHg 34%
    03:00 +10°C° 0 mm 0 m/s 755 mmHg 35%
    04:00 +9°C° 0 mm 0 m/s 755 mmHg 35%
    05:00 +9°C° 0 mm 0 m/s 755 mmHg 35%
    06:00 +9°C° 0 mm 0 m/s 755 mmHg 36%
    07:00 +11°C° 0 mm 1 m/s 756 mmHg 33%
    08:00 +13°C° 0 mm 1 m/s 756 mmHg 30%
    09:00 +15°C° 0 mm 1 m/s 757 mmHg 26%
    10:00 +16°C° 0 mm 2 m/s 757 mmHg 24%
    11:00 +17°C° 0 mm 2 m/s 756 mmHg 22%
    12:00 +19°C° 0 mm 3 m/s 756 mmHg 19%
    13:00 +19°C° 0 mm 3 m/s 755 mmHg 19%
    14:00 +20°C° 0 mm 3 m/s 755 mmHg 18%
    15:00 +20°C° 0 mm 4 m/s 754 mmHg 18%
    16:00 +19°C° 0 mm 4 m/s 754 mmHg 19%
    17:00 +18°C° 0 mm 4 m/s 754 mmHg 21%
    18:00 +17°C° 0 mm 3 m/s 754 mmHg 22%
    19:00 +17°C° 0 mm 4 m/s 755 mmHg 23%
    20:00 +15°C° 0 mm 4 m/s 755 mmHg 24%
    21:00 +15°C° 0 mm 4 m/s 755 mmHg 25%
    22:00 +14°C° 0 mm 4 m/s 755 mmHg 25%
    23:00 +14°C° 0 mm 4 m/s 755 mmHg 26%

    25 Ianuarie, Vineri

    Timp Temperatura Precipitaţii Vânt Presiune Umiditate
    00:00 +14°C° 0 mm 4 m/s 755 mmHg 26%
    01:00 +13°C° 0 mm 4 m/s 754 mmHg 27%
    02:00 +13°C° 0 mm 4 m/s 754 mmHg 28%
    03:00 +13°C° 0 mm 3 m/s 754 mmHg 28%
    04:00 +13°C° 0 mm 4 m/s 754 mmHg 29%
    05:00 +12°C° 0 mm 4 m/s 754 mmHg 30%
    06:00 +12°C° 0 mm 4 m/s 754 mmHg 31%
    07:00 +13°C° 0 mm 5 m/s 754 mmHg 32%
    08:00 +14°C° 0 mm 5 m/s 754 mmHg 33%
    09:00 +15°C° 0 mm 6 m/s 754 mmHg 34%
    10:00 +16°C° 0 mm 6 m/s 754 mmHg 33%
    11:00 +19°C° 0 mm 6 m/s 754 mmHg 32%
    12:00 +21°C° 0 mm 6 m/s 753 mmHg 32%
    13:00 +21°C° 0 mm 6 m/s 753 mmHg 31%
    14:00 +22°C° 0 mm 5 m/s 752 mmHg 30%
    15:00 +23°C° 0 mm 5 m/s 752 mmHg 29%
    16:00 +22°C° 0 mm 5 m/s 752 mmHg 32%
    17:00 +21°C° 0 mm 4 m/s 752 mmHg 35%
    18:00 +20°C° 0 mm 4 m/s 752 mmHg 37%
    19:00 +19°C° 0 mm 4 m/s 752 mmHg 39%
    20:00 +19°C° 0 mm 4 m/s 752 mmHg 40%
    21:00 +18°C° 0 mm 4 m/s 752 mmHg 42%
    22:00 +18°C° 0 mm 3 m/s 752 mmHg 43%
    23:00 +17°C° 0 mm 3 m/s 752 mmHg 45%

    26 Ianuarie, Sâmbătă

    Timp Temperatura Precipitaţii Vânt Presiune Umiditate
    00:00 +17°C° 0 mm 3 m/s 752 mmHg 46%
    01:00 +16°C° 0 mm 3 m/s 751 mmHg 48%
    02:00 +16°C° 0 mm 2 m/s 751 mmHg 49%
    03:00 +15°C° 0 mm 2 m/s 751 mmHg 51%
    04:00 +15°C° 0 mm 2 m/s 751 mmHg 52%
    05:00 +14°C° 0 mm 3 m/s 751 mmHg 52%
    06:00 +14°C° 0 mm 3 m/s 751 mmHg 53%
    07:00 +16°C° 0 mm 3 m/s 751 mmHg 51%
    08:00 +15°C° 0 mm 4 m/s 752 mmHg 50%
    09:00 +17°C° 0 mm 4 m/s 752 mmHg 48%
    10:00 +19°C° 0 mm 4 m/s 751 mmHg 42%
    11:00 +21°C° 0 mm 4 m/s 751 mmHg 37%
    12:00 +23°C° 0 mm 5 m/s 751 mmHg 31%
    13:00 +25°C° 0 mm 5 m/s 750 mmHg 30%
    14:00 +25°C° 0 mm 5 m/s 750 mmHg 28%
    15:00 +26°C° 0 mm 4 m/s 750 mmHg 27%
    16:00 +25°C° 0 mm 4 m/s 750 mmHg 31%
    17:00 +23°C° 0 mm 4 m/s 750 mmHg 35%
    18:00 +22°C° 0 mm 4 m/s 750 mmHg 39%
    19:00 +21°C° 0 mm 4 m/s 750 mmHg 42%
    20:00 +20°C° 0 mm 3 m/s 750 mmHg 46%
    21:00 +20°C° 0 mm 3 m/s 750 mmHg 49%
    22:00 +20°C° 0 mm 3 m/s 750 mmHg 50%
    23:00 +19°C° 0 mm 3 m/s 750 mmHg 52%
    Arată mai mult